Theta_e
342 343 345 347 346 348 348 348 347 346 346 345 344 343 343 340 339 341 342 338 338 341 348 348 347 345 343 341 340 339 342 343 343 342 343 343 343 343 344 344 343 343 342 342 342 344 344 343 342 343 343 343 344 344 345 345 346 346 346 345 344 344 345 345 345 345 345 344 345 345 345 345 346 346 346 345 344 344 343 343 341 338 340 341 343
342 345 346 348 347 348 347 348 348 347 346 345 344 343 342 342 343 341 341 341 341 345 348 347 347 346 345 343 340 341 340 342 342 342 343 343 343 343 343 343 342 340 340 343 343 343 343 342 341 341 341 341 342 343 343 344 345 344 344 344 344 344 344 344 344 345 345 345 344 344 343 344 344 345 345 345 345 344 343 343 342 340 341 343 344
344 345 346 347 347 348 347 348 347 347 346 343 342 342 342 341 341 341 341 341 341 344 348 347 347 344 342 340 339 343 343 343 343 343 342 344 345 344 345 343 340 338 342 341 340 339 340 340 339 340 341 341 342 342 342 343 343 344 344 343 343 343 343 343 343 343 343 344 344 344 344 344 343 344 345 345 344 344 342 342 342 341 341 343 342
343 345 346 347 345 347 347 347 347 346 345 344 342 343 344 342 340 341 340 340 344 347 347 347 346 343 341 340 339 340 341 341 341 341 342 346 346 345 344 343 340 339 341 342 341 341 341 340 339 339 338 339 340 340 341 342 342 343 343 343 343 343 343 343 342 342 344 343 343 340 340 342 342 343 344 345 345 344 341 341 341 342 342 342 341
344 345 346 348 349 348 348 348 347 346 345 344 343 343 342 341 340 341 341 342 346 346 346 346 344 341 341 339 341 342 341 339 340 341 341 344 344 342 340 338 341 340 340 340 339 338 340 339 339 339 338 338 338 339 340 340 341 342 342 343 343 342 342 342 342 342 341 342 341 338 338 340 341 341 344 344 344 341 340 340 340 342 340 340 340
344 345 345 347 347 350 347 348 347 346 345 344 343 343 344 342 342 342 341 341 342 346 347 346 344 342 340 339 339 339 340 340 340 341 341 342 344 344 343 342 343 344 343 344 342 341 340 340 339 339 339 338 338 338 338 338 339 340 341 342 342 341 341 341 341 341 340 339 339 338 338 339 339 338 341 343 342 339 339 339 341 341 341 341 340
343 345 346 346 348 348 346 348 347 346 345 345 345 345 343 341 340 341 340 341 346 347 347 347 346 343 342 340 338 338 340 339 340 341 340 341 342 342 342 342 342 342 342 342 342 343 342 342 341 341 341 339 339 339 339 339 339 340 340 341 342 341 340 340 340 340 339 337 338 339 339 339 339 339 342 343 341 340 341 342 342 341 342 340 339
344 346 346 347 349 346 345 348 347 346 346 345 345 343 343 343 341 341 340 340 341 344 346 346 346 344 342 341 338 338 340 339 338 339 340 340 340 342 342 340 340 340 340 341 339 337 337 337 338 338 339 338 338 340 340 340 340 340 341 340 340 340 340 340 339 339 338 337 339 339 338 339 339 338 341 341 340 342 342 341 341 339 340 338 336
342 344 345 347 349 343 345 346 347 346 345 344 344 345 344 343 342 341 340 339 342 344 345 345 345 344 342 341 338 337 338 337 339 339 339 338 338 339 340 340 340 340 340 339 338 339 338 338 339 339 339 339 339 339 339 340 340 340 340 340 339 339 338 338 338 337 336 337 337 338 338 337 338 337 340 342 340 340 339 338 338 340 337 335 335
341 345 346 347 349 342 345 345 347 345 345 345 345 345 344 343 341 340 339 340 344 346 346 346 345 343 341 340 339 338 338 337 337 337 337 340 341 342 342 342 342 342 340 340 342 343 343 342 340 341 340 340 340 339 339 340 340 340 340 340 339 338 337 338 337 335 335 336 336 338 338 337 338 337 339 340 340 339 336 333 335 335 334 334 334
342 344 346 348 349 341 346 347 347 346 345 345 345 344 344 343 342 341 341 340 341 346 345 344 344 343 340 340 339 338 337 337 337 337 338 338 343 343 342 342 341 341 340 340 341 341 341 341 340 340 341 341 339 339 339 339 339 339 339 338 337 337 337 337 335 335 336 335 336 336 337 337 336 336 339 339 339 338 335 335 334 335 335 335 335
341 344 346 347 346 341 345 346 347 346 346 346 346 345 344 343 342 341 341 340 340 345 344 344 344 343 340 339 338 337 337 337 337 337 338 338 340 342 341 340 339 338 339 339 339 339 340 340 339 339 340 339 339 338 338 338 338 338 338 337 336 336 336 335 334 335 336 335 336 335 335 335 336 338 337 339 339 337 335 335 335 335 335 335 335
341 343 346 347 348 340 343 345 346 347 346 346 345 344 344 343 343 342 342 341 338 340 343 342 342 342 340 338 337 336 336 336 337 337 337 337 337 337 339 338 338 339 339 339 339 339 339 340 340 339 339 338 337 338 338 338 338 338 337 336 335 335 335 333 334 334 335 335 336 337 336 337 334 336 337 338 337 336 336 335 335 334 334 333 333
341 343 345 346 346 345 338 341 343 346 347 346 345 344 344 343 342 342 342 341 339 339 340 342 343 343 340 337 337 336 335 335 336 336 336 337 336 337 337 337 338 338 338 338 338 338 338 339 339 339 338 338 338 338 337 337 336 336 335 335 334 334 333 332 333 335 335 335 335 335 335 336 335 335 336 336 336 334 333 333 332 331 331 330 330
340 343 344 346 346 348 340 338 341 343 344 346 345 345 344 343 342 342 342 341 340 339 340 342 342 342 342 339 336 335 335 335 336 336 335 335 336 336 336 337 338 338 337 338 337 337 337 337 338 338 338 337 337 337 337 336 336 335 334 333 332 332 331 334 335 335 334 334 333 334 334 334 334 335 334 336 334 333 333 332 331 329 329 328 327
343 343 344 344 345 347 347 342 337 337 341 343 344 344 344 343 342 341 341 341 340 339 339 339 340 342 341 340 338 335 335 334 335 336 337 336 336 336 336 336 336 336 337 337 337 337 337 337 338 338 337 337 337 336 336 335 335 334 332 332 331 331 329 330 334 333 333 333 333 333 333 333 333 334 334 333 332 331 330 331 330 329 329 328 328
342 343 343 344 346 345 347 347 342 333 335 337 339 340 342 344 343 342 342 342 342 341 338 338 339 339 340 339 338 339 339 337 336 337 339 335 335 336 338 336 336 336 337 337 337 337 337 337 337 337 337 337 336 336 335 335 333 332 331 330 330 328 327 327 333 332 332 332 332 332 332 332 332 332 331 330 330 329 329 328 328 328 327 327 325
342 342 341 343 344 345 346 346 348 347 348 339 333 337 340 342 342 342 342 342 342 342 341 341 341 341 340 339 339 339 338 338 339 339 338 336 336 336 338 336 336 337 337 337 336 336 336 336 336 336 336 336 335 335 334 333 332 331 329 329 328 327 327 327 332 331 332 331 331 331 330 330 330 331 330 330 330 330 329 328 327 326 326 325 324
341 341 341 343 343 344 344 346 346 346 346 347 347 344 334 338 339 339 339 340 340 339 338 337 337 338 338 337 336 334 332 332 332 334 335 334 332 332 337 338 336 337 336 335 335 335 335 335 335 335 335 334 334 334 333 332 331 329 328 327 325 324 324 328 332 331 330 329 329 328 331 332 331 330 330 329 328 327 325 325 325 324 324 323 323
340 341 341 343 344 344 345 345 345 346 346 348 346 347 335 332 335 336 336 337 337 336 334 331 329 330 330 330 329 333 330 333 326 332 329 333 331 330 333 335 336 336 334 334 335 334 334 334 334 334 333 333 333 332 331 330 329 328 327 326 324 323 331 331 331 330 329 327 328 328 329 328 327 327 327 327 327 326 325 324 324 323 324 326 326
338 340 341 341 343 343 343 344 344 345 346 346 346 346 343 330 332 330 331 333 333 332 329 324 323 322 326 324 327 335 335 334 334 335 327 335 324 326 332 336 335 334 334 333 333 333 333 333 333 332 331 330 327 326 327 328 327 327 326 324 322 331 331 330 330 328 328 327 327 326 327 327 326 327 327 326 325 325 324 323 322 323 325 325 323
336 338 340 341 342 342 343 343 344 344 345 345 345 345 344 338 343 343 342 337 329 327 334 339 334 337 323 333 337 335 334 334 335 333 334 333 331 324 329 334 335 333 334 332 332 332 331 331 331 330 329 327 325 331 327 322 323 324 323 321 330 331 331 330 328 328 328 327 326 325 328 330 328 328 326 325 325 325 324 323 322 322 324 323 323
334 336 338 340 341 342 342 342 343 343 344 344 345 345 343 343 344 341 341 333 337 339 340 338 339 338 337 337 333 334 334 333 334 334 334 323 331 324 327 329 331 330 333 333 331 331 330 329 328 327 326 325 331 332 332 331 329 318 320 330 331 330 330 329 329 329 328 327 326 327 329 327 326 326 326 327 325 323 323 322 321 323 323 322 321
334 336 337 339 340 341 341 342 343 343 343 343 344 343 343 343 342 341 340 338 337 339 340 339 339 339 338 335 333 335 334 333 326 325 329 333 330 321 322 323 325 326 327 330 329 328 326 324 323 322 326 327 331 330 330 331 330 331 331 330 330 330 330 329 329 328 328 326 326 326 328 326 326 326 325 324 324 323 322 321 321 323 321 319 321
336 337 337 338 339 340 341 341 341 342 342 342 342 342 342 342 341 341 340 338 337 336 337 338 338 338 337 334 335 335 334 332 332 332 333 332 332 332 332 332 332 332 325 330 329 327 326 327 326 325 329 329 329 330 330 330 330 330 330 329 329 330 329 328 328 328 328 327 326 324 326 326 324 325 325 325 324 322 321 321 322 321 319 320 319
337 335 336 337 339 340 340 341 341 341 341 341 341 341 341 341 340 340 339 338 338 336 336 336 336 336 336 335 334 334 333 332 333 332 332 331 330 330 330 330 330 330 330 328 327 326 326 326 327 327 326 327 328 329 329 328 329 328 328 329 329 328 328 328 328 328 328 328 325 322 325 325 325 325 324 324 323 322 321 320 321 320 319 319 319
335 336 336 338 339 340 340 340 340 340 340 341 341 341 341 341 340 340 338 337 337 336 335 334 335 335 336 335 333 332 331 331 331 332 331 331 330 330 329 329 329 328 329 328 326 326 325 325 325 325 325 325 326 327 327 327 328 328 328 329 328 328 328 328 328 328 327 326 323 320 324 326 324 323 323 323 322 321 321 320 320 320 319 319 319
334 335 336 337 337 338 340 339 339 339 339 340 340 340 340 341 341 339 338 335 336 336 335 336 335 334 334 333 331 332 331 331 331 331 330 331 330 331 330 329 328 328 328 327 325 324 323 324 325 325 324 325 325 325 326 326 327 328 328 328 328 327 327 327 327 328 327 326 326 321 322 324 325 324 323 322 322 321 320 320 321 321 320 321 318
332 334 336 336 337 338 340 339 338 338 339 339 339 340 339 340 340 338 338 332 336 336 336 336 334 333 333 334 333 331 331 331 331 330 330 329 330 329 328 327 328 326 326 325 325 323 323 323 324 324 325 324 324 324 324 325 326 327 327 327 328 327 327 327 327 326 326 325 324 321 320 322 326 325 323 323 322 321 321 320 321 319 319 319 318
332 333 335 337 337 338 338 339 339 338 338 338 338 338 339 339 339 338 340 335 336 337 336 334 334 333 331 332 333 332 331 330 330 330 329 328 328 328 328 327 326 325 325 324 323 323 323 323 323 323 323 323 323 322 324 324 323 324 325 326 326 325 326 325 326 326 326 325 324 323 317 320 323 325 322 321 322 321 321 320 320 320 318 318 318
333 332 334 336 337 338 338 338 339 338 338 337 338 337 338 338 340 340 339 335 338 336 336 335 334 333 333 332 332 332 331 331 330 329 328 328 327 327 326 326 324 324 324 323 322 323 323 323 323 322 322 323 322 321 322 322 322 321 321 322 322 322 322 323 324 325 325 324 324 323 324 317 321 323 325 322 321 320 320 319 319 319 318 318 316
333 333 334 336 336 337 337 338 338 339 338 337 337 337 337 337 338 340 338 338 338 337 336 335 332 333 333 332 331 331 331 331 331 330 329 327 326 325 325 324 323 323 323 322 321 321 321 321 320 320 321 321 319 320 320 321 321 320 319 318 318 319 319 320 321 322 324 324 324 324 323 323 317 319 322 324 320 319 320 319 318 317 319 317 318
334 335 335 335 335 336 336 337 338 339 338 337 337 337 337 337 337 337 339 339 338 336 334 335 334 333 332 331 331 329 330 330 330 329 328 327 327 325 324 323 323 322 322 321 321 320 319 318 317 316 317 318 318 318 318 319 318 317 317 316 316 316 316 316 318 318 319 320 321 322 323 322 322 316 317 320 323 320 319 319 318 318 317 318 317
334 335 335 334 335 337 337 337 338 337 338 337 337 337 337 337 337 337 339 339 338 337 335 334 333 331 330 330 330 329 328 329 330 329 328 327 327 324 323 322 322 321 319 319 318 319 318 316 316 315 314 316 317 318 317 317 316 316 315 313 313 313 313 313 312 312 312 314 313 315 315 317 319 320 322 317 318 321 319 318 319 318 318 317 317
333 334 334 335 334 335 336 336 336 337 337 337 337 336 338 337 337 336 337 338 338 337 336 335 334 333 331 329 328 327 327 327 328 328 327 327 326 324 322 320 319 318 317 317 317 315 316 316 315 315 314 314 315 316 317 317 314 313 312 310 310 308 308 309 308 307 307 309 311 312 310 310 311 315 319 319 312 313 319 320 318 318 317 317 317
332 333 334 334 334 335 335 335 337 335 336 335 336 336 336 338 338 332 336 338 338 338 338 336 336 335 333 331 330 328 326 327 327 327 326 326 325 324 323 321 317 317 317 316 316 316 316 316 315 316 314 314 314 314 315 313 312 311 310 308 309 308 308 306 306 306 306 307 309 307 307 307 307 310 310 316 317 316 313 318 320 319 317 317 317
331 332 333 333 333 334 334 334 334 336 337 337 338 338 337 336 337 337 337 337 337 338 338 337 336 334 333 333 331 330 328 328 327 326 325 326 326 325 323 319 315 316 316 315 314 316 315 314 313 314 317 315 313 314 312 311 310 309 308 307 307 307 307 305 305 307 305 305 304 304 304 305 303 302 304 307 312 316 312 314 318 319 318 317 317
331 331 333 332 332 334 334 333 333 334 335 335 336 337 336 335 335 337 337 338 338 338 338 338 335 334 333 333 334 332 330 329 328 327 326 326 327 326 324 321 317 316 315 314 314 314 314 313 313 314 314 313 312 311 310 309 307 306 305 304 304 305 305 303 303 301 302 303 303 303 303 302 302 301 301 303 305 308 314 313 314 314 312 316 317
328 329 331 332 333 333 332 332 332 333 333 335 337 336 337 337 336 337 337 337 338 338 339 339 337 335 334 333 334 332 329 328 327 326 327 326 325 325 326 323 317 316 315 314 314 314 314 314 314 312 311 311 311 309 307 306 303 302 302 301 302 301 303 302 300 300 300 300 301 301 300 301 300 300 300 301 301 303 305 309 313 313 313 311 319
326 326 327 330 331 331 331 331 331 331 332 332 334 335 334 332 333 334 333 333 335 335 338 337 338 336 334 334 332 331 329 329 329 328 326 324 322 323 325 321 315 314 313 313 314 313 312 312 311 310 307 306 306 306 304 302 301 300 299 299 299 299 301 300 299 298 298 298 299 298 299 299 298 299 299 299 299 301 303 305 305 312 313 312 312
324 325 325 326 328 329 329 328 330 331 330 330 331 332 331 331 331 332 332 333 333 334 334 335 336 335 334 333 332 331 331 331 330 330 327 322 323 324 324 319 314 312 313 314 313 313 313 312 310 308 305 303 302 302 301 302 300 300 299 299 299 298 298 298 298 299 298 297 296 296 297 297 298 298 300 299 299 298 299 301 302 305 309 311 310
319 322 323 324 326 328 328 328 329 329 329 329 329 329 331 331 330 329 330 331 331 331 332 335 336 336 336 335 334 334 333 333 329 328 327 326 324 323 322 321 316 314 313 313 312 309 310 310 309 306 305 303 302 302 300 303 301 302 301 301 302 302 299 298 297 298 298 296 296 295 296 297 298 298 298 297 297 296 297 297 298 300 304 308 310
314 318 321 323 324 325 327 328 328 328 328 329 328 328 330 331 331 331 332 331 333 332 333 335 336 335 336 336 335 334 333 331 328 327 328 328 324 322 321 321 318 314 311 309 308 308 308 307 306 305 303 303 305 302 302 305 304 305 304 302 301 300 303 299 298 297 298 296 294 295 296 297 298 297 295 294 295 295 296 296 297 299 300 302 304
309 312 316 319 322 323 324 326 327 327 327 328 327 329 329 329 330 331 333 332 330 329 332 332 333 332 332 334 333 332 332 330 329 327 327 328 326 322 320 319 318 315 312 310 308 308 308 307 306 306 307 304 304 302 303 304 308 304 300 301 300 298 300 306 307 305 300 296 295 295 295 295 296 294 293 293 295 295 295 295 295 297 298 300 301
307 308 311 315 317 320 322 324 325 325 326 325 327 328 328 329 328 329 330 327 326 327 327 327 330 330 331 332 332 333 332 331 330 330 328 326 325 324 320 318 317 314 313 311 309 308 308 309 308 307 307 306 304 304 301 303 306 309 308 300 297 297 300 306 306 308 301 298 296 295 295 294 294 294 293 294 295 295 295 295 296 296 296 297 298
305 307 309 311 314 317 319 322 323 324 324 324 325 326 326 325 324 323 320 321 320 322 321 323 325 326 327 331 333 334 334 333 331 329 327 324 324 324 322 319 318 317 314 311 311 310 309 309 309 308 307 307 306 304 300 299 302 304 307 309 311 308 307 304 303 302 297 299 298 296 295 294 295 294 294 293 294 294 294 294 295 295 295 295 296
305 307 308 308 311 314 318 319 321 322 323 323 324 323 323 324 324 323 322 321 320 322 324 325 326 327 329 328 329 331 332 332 331 330 328 326 326 325 324 323 321 319 316 313 312 311 310 310 309 307 307 307 307 304 302 300 299 300 303 305 305 299 301 302 302 304 300 299 294 297 296 295 293 293 294 294 294 295 294 293 294 295 295 294 293
305 304 306 308 310 312 316 317 319 321 322 322 323 323 322 323 323 323 322 322 322 322 324 324 326 327 327 326 327 327 328 329 330 330 329 328 327 327 325 324 321 319 316 314 313 311 309 310 309 307 307 307 306 305 304 303 300 300 302 303 304 300 297 296 297 302 302 299 297 295 296 295 293 292 293 294 295 295 295 294 294 294 294 293 292
306 307 307 308 311 313 315 317 319 320 321 321 321 322 322 322 322 322 321 322 323 323 324 325 324 325 325 325 325 325 325 325 326 327 326 326 324 325 326 324 322 320 316 314 314 314 312 310 307 306 305 306 306 306 306 305 304 305 303 302 302 301 298 296 296 294 294 296 298 298 296 294 293 292 292 293 294 296 296 295 295 294 294 293 293
307 307 308 309 311 313 314 316 317 319 320 320 320 321 322 321 322 322 321 321 322 322 323 322 322 323 322 323 323 323 324 323 323 324 325 325 324 323 324 323 322 320 315 315 314 314 313 312 310 307 306 306 306 305 305 306 305 304 304 303 300 300 300 298 297 295 293 295 296 298 299 294 290 293 294 293 293 294 295 294 294 293 292 292 293
308 309 310 311 311 313 314 315 317 318 318 318 319 320 321 321 321 321 321 321 321 321 319 318 319 318 318 320 320 321 321 321 322 321 321 323 323 322 321 322 322 321 317 316 316 316 314 312 309 307 305 305 305 305 304 305 306 304 303 304 302 301 300 299 298 298 297 295 294 294 298 299 298 298 298 296 294 294 294 293 293 292 292 291 292
Wind_Speed
6 8 7 7 4 5 7 10 10 10 10 10 11 11 11 11 10 10 10 10 10 10 15 16 16 16 15 15 14 15 16 17 16 17 16 16 16 17 18 18 18 18 17 17 18 17 17 16 16 16 16 16 16 17 17 18 19 18 18 18 19 19 18 18 16 18 19 20 21 20 19 19 19 19 19 19 17 15 13 14 15 15 14 16 20
9 8 7 8 5 6 9 9 11 11 11 11 11 11 11 10 10 9 9 9 9 12 13 14 14 15 15 15 15 14 14 16 16 16 16 15 16 17 17 18 17 16 17 17 16 16 17 17 17 17 17 16 16 16 17 17 18 18 18 18 18 18 17 17 15 15 18 18 19 20 20 20 19 19 20 20 20 19 16 16 17 15 14 20 21
10 9 8 9 4 5 9 10 11 12 11 11 11 11 11 10 10 10 9 7 7 10 15 14 15 15 15 15 14 17 17 16 16 15 15 16 17 18 19 18 17 17 17 17 16 16 16 16 17 17 16 16 16 16 17 17 17 18 18 18 18 17 16 16 15 14 13 16 19 18 18 21 20 20 21 21 21 20 17 19 18 18 15 21 20
11 9 8 8 3 3 10 9 11 12 11 11 10 9 9 10 9 10 9 8 10 14 15 15 16 16 15 14 14 16 16 16 15 15 16 16 17 18 18 18 17 16 16 17 17 17 17 17 17 17 17 16 16 16 17 17 18 18 18 18 18 17 17 16 14 12 8 10 11 13 12 13 16 21 21 21 22 22 19 21 22 22 23 21 23
10 9 9 9 9 9 10 10 12 11 11 11 10 9 9 10 10 9 8 10 11 11 13 14 16 16 15 14 15 16 15 16 15 15 15 17 16 15 15 15 17 15 15 17 16 16 17 17 18 18 18 17 17 17 17 18 18 18 18 18 17 17 16 15 13 11 12 10 9 12 13 14 13 19 21 21 21 20 20 21 22 23 22 23 22
10 9 9 9 10 11 9 10 12 11 11 11 10 9 8 9 10 10 9 7 9 13 14 13 15 16 16 15 14 15 16 15 15 15 15 15 17 17 16 17 16 16 17 17 17 17 16 17 18 18 17 17 16 16 17 18 18 18 18 18 18 17 16 14 11 10 11 11 13 11 12 13 13 13 20 21 21 19 21 20 21 20 22 22 23
12 8 8 9 9 10 8 10 12 11 11 11 10 9 9 9 8 8 8 8 13 12 13 13 11 15 14 13 12 14 15 14 15 14 14 15 16 16 16 15 15 15 16 16 17 17 16 17 16 17 17 17 17 17 17 17 17 17 17 18 17 17 15 13 11 10 9 11 10 11 10 13 13 11 17 21 20 18 22 22 23 22 22 21 21
9 7 8 8 9 10 8 10 11 11 11 11 9 9 9 8 8 9 8 7 10 11 13 13 11 13 14 13 12 14 15 13 13 14 14 14 15 15 15 14 14 14 14 15 15 16 16 16 16 16 17 16 16 17 17 17 17 17 17 17 16 15 13 13 12 11 11 12 10 10 11 13 14 11 17 19 21 22 23 22 22 22 22 21 17
10 9 9 9 10 10 8 9 11 11 11 10 9 9 8 8 8 8 7 6 10 11 13 13 12 14 14 13 13 13 13 14 14 14 12 12 12 13 15 15 14 15 15 15 16 16 16 16 16 16 16 16 16 16 16 16 17 17 17 16 16 15 13 10 8 11 12 11 11 11 12 13 14 12 18 21 21 21 20 18 20 22 22 20 21
10 9 9 8 10 9 8 9 11 11 12 10 9 9 8 9 8 8 7 8 11 13 13 12 13 14 13 12 12 13 12 13 13 12 12 11 12 13 14 14 14 15 16 15 16 16 16 16 15 15 16 16 16 16 16 16 17 17 17 17 15 13 10 9 11 12 11 12 13 13 12 13 13 13 19 22 24 24 22 20 18 18 18 22 23
12 10 9 9 12 8 9 10 9 10 12 11 9 9 9 8 8 8 7 6 9 13 12 12 13 13 12 12 12 12 12 12 13 12 11 12 13 14 15 14 15 14 14 14 14 15 16 16 15 15 15 16 15 15 16 16 16 16 16 16 14 11 9 9 12 11 12 12 13 12 13 14 13 11 20 22 22 23 19 20 19 19 20 22 22
12 10 9 9 11 7 8 9 9 11 11 11 10 9 9 8 8 7 7 7 7 13 11 11 12 12 12 12 12 11 12 13 13 11 11 11 12 14 13 12 13 13 13 13 14 14 14 14 14 15 15 15 15 16 16 16 16 16 16 15 13 11 10 10 11 11 11 12 13 12 14 14 14 13 20 21 21 21 20 20 20 21 21 21 21
12 10 9 9 11 7 7 8 8 10 10 11 10 10 9 9 8 8 7 7 7 9 11 10 10 12 12 12 11 10 11 12 13 11 11 11 11 12 13 13 13 13 13 13 13 13 14 14 14 14 14 14 14 15 15 15 15 15 15 14 13 10 7 9 11 11 11 12 11 12 13 12 11 18 19 20 20 19 19 19 20 20 19 20 20
11 10 9 9 8 7 6 7 7 8 9 10 11 10 10 9 9 8 8 7 7 7 9 11 11 11 13 12 11 10 9 11 12 11 11 11 11 11 11 12 13 14 13 13 13 13 12 12 13 13 13 14 13 14 14 14 14 13 12 12 11 10 10 11 12 11 11 11 11 12 12 10 12 18 18 19 19 19 18 18 18 18 19 19 18
10 10 9 9 9 9 6 6 6 8 8 9 9 10 10 9 9 8 8 7 6 7 10 11 11 11 11 12 11 10 9 10 12 10 10 10 10 11 11 12 12 13 13 12 12 12 12 12 13 13 13 13 14 14 14 14 13 13 12 10 9 7 7 10 9 9 10 10 10 11 10 10 15 16 17 18 18 17 17 18 17 16 16 17 17
10 10 8 8 8 9 8 6 6 8 7 9 8 8 8 9 8 8 8 7 6 7 8 10 10 12 11 10 11 10 8 8 10 10 12 10 10 9 10 11 11 12 12 12 12 12 12 13 13 13 13 14 14 14 14 13 13 13 11 11 9 8 7 8 8 9 8 9 9 10 10 11 16 17 17 18 17 16 16 16 18 17 17 17 16
10 9 10 9 9 8 9 10 9 8 8 8 8 8 8 7 8 8 7 6 6 6 8 8 9 10 11 11 9 7 6 7 7 9 10 10 9 7 9 10 11 11 11 12 12 12 12 12 12 13 13 14 14 14 14 13 13 12 11 10 8 7 6 8 8 8 8 9 8 8 8 9 12 14 14 13 15 15 15 16 16 17 17 16 16
9 10 9 9 9 8 8 9 10 10 10 9 9 8 8 8 7 7 7 6 5 5 5 6 8 8 10 9 7 7 6 6 7 9 11 11 8 7 8 9 10 12 12 12 12 12 12 12 12 13 13 13 13 13 13 13 12 11 10 9 8 7 7 7 8 8 8 8 8 7 7 9 13 14 15 16 16 16 17 17 16 15 15 15 15
9 9 9 9 10 8 8 8 9 9 10 9 9 9 9 9 8 7 7 7 6 6 7 8 8 9 9 8 8 8 8 10 10 9 9 9 9 7 6 7 11 12 11 12 11 11 11 11 11 12 12 12 13 12 12 12 11 10 9 7 7 6 2 6 7 7 7 7 7 8 11 14 16 16 16 17 16 15 14 14 15 15 15 14 14
8 9 9 9 8 9 8 7 8 9 9 8 8 10 9 10 8 8 7 7 7 8 8 9 9 10 9 10 9 8 7 7 8 9 8 8 7 7 4 7 11 11 11 11 11 11 10 10 11 11 12 12 12 12 11 10 10 9 6 7 5 3 5 6 7 6 7 8 9 8 9 12 14 14 14 14 14 15 14 14 14 13 15 18 18
6 9 8 9 9 9 9 8 8 8 8 8 7 8 9 10 8 7 8 7 8 8 9 9 9 9 9 9 8 7 6 6 6 6 7 6 7 7 6 6 8 9 9 9 10 10 10 10 10 11 11 12 11 11 9 9 8 7 6 5 3 4 5 6 6 6 7 7 8 8 13 14 13 14 14 13 14 14 14 13 13 15 17 14 14
8 7 9 9 9 9 9 9 8 8 8 7 6 7 7 8 9 8 8 7 7 8 7 7 8 7 8 7 5 5 5 5 5 6 6 7 7 7 8 8 8 7 7 9 9 9 9 8 9 10 11 10 8 7 7 7 7 6 5 2 3 5 6 6 6 5 7 7 8 9 9 11 17 16 13 12 13 14 13 13 14 13 16 14 14
10 8 8 10 9 8 9 9 9 9 9 8 6 6 9 8 9 8 7 7 7 7 6 6 6 7 7 5 5 4 5 5 4 4 4 8 8 8 9 7 7 6 6 7 8 8 8 8 7 8 8 4 4 5 6 5 4 3 4 4 4 4 5 7 6 6 6 6 7 5 11 13 12 11 12 14 13 13 13 14 12 14 15 14 12
11 10 9 9 9 9 10 9 8 9 9 8 7 7 8 7 7 7 6 6 7 6 6 6 5 6 6 5 4 5 5 4 8 9 7 6 6 9 10 10 9 8 9 7 8 8 8 5 5 5 4 3 3 4 5 5 6 5 4 4 4 5 6 6 6 6 7 7 6 6 8 12 12 13 13 13 12 12 13 12 12 14 12 10 14
10 9 8 9 11 10 9 9 9 8 9 8 8 8 8 7 7 7 7 7 6 7 5 6 5 6 6 5 5 6 5 5 6 6 6 5 6 6 6 6 6 6 3 5 4 4 4 3 4 2 2 2 3 3 4 5 5 4 4 4 5 6 5 5 6 6 7 7 8 5 11 10 12 13 12 12 13 12 11 11 13 12 10 13 12
9 9 10 9 10 10 10 9 10 10 10 8 9 7 7 8 8 8 7 7 7 7 6 5 6 6 6 5 6 6 6 5 6 6 6 6 6 6 6 5 6 6 6 4 3 4 2 3 2 2 2 2 2 2 2 4 5 4 4 5 5 6 5 5 6 6 7 7 7 5 12 12 11 12 11 11 12 12 11 11 11 11 11 11 11
10 10 10 10 10 11 10 10 10 10 11 10 9 8 9 8 8 8 8 7 7 7 7 7 6 7 6 6 7 7 6 6 6 6 6 6 6 6 6 5 6 6 5 4 3 3 2 2 2 2 2 2 2 1 2 1 3 4 5 5 5 6 6 5 5 6 6 7 6 6 6 6 10 8 11 11 11 9 9 10 11 11 11 11 11
10 12 11 10 9 11 11 11 10 10 10 10 9 9 9 8 8 7 8 6 7 7 7 7 7 6 7 6 6 6 6 6 7 7 6 5 6 5 5 5 5 4 4 3 3 3 3 2 2 2 2 2 2 2 2 2 2 3 5 6 5 6 6 6 5 5 6 6 7 4 7 9 10 11 11 9 9 9 10 9 9 10 10 13 10
12 13 11 11 12 11 12 12 11 11 10 10 10 10 10 10 9 8 8 7 8 7 7 7 7 6 6 6 7 6 6 6 7 7 6 6 5 5 5 5 5 4 4 4 4 4 4 3 3 3 3 3 3 3 3 2 3 4 5 5 5 6 5 5 5 5 5 5 6 4 4 5 6 11 11 10 11 8 8 7 10 7 9 10 9
13 13 13 12 12 12 13 13 12 10 10 10 10 10 10 10 10 9 8 8 10 8 8 7 7 7 6 7 6 6 6 6 7 6 6 6 5 6 6 5 5 5 5 4 4 4 4 4 3 3 4 3 4 3 3 3 2 2 3 6 5 4 3 4 6 6 6 6 6 5 3 4 7 10 10 6 8 8 10 10 8 11 8 9 10
12 13 13 12 11 12 12 12 13 10 10 10 10 11 10 11 10 10 9 7 9 9 8 8 8 7 7 8 7 6 6 6 7 6 6 6 6 6 6 5 5 5 5 5 5 4 4 4 4 4 4 4 3 3 3 3 3 3 2 3 3 3 2 2 3 5 8 7 6 7 6 4 7 6 5 11 7 8 9 7 8 8 9 8 7
13 13 11 12 12 14 14 13 13 11 11 11 9 10 10 11 10 9 10 8 7 8 10 9 7 7 8 8 8 7 6 6 6 6 6 6 6 6 6 6 6 6 6 5 5 4 4 3 3 2 2 3 3 3 3 4 4 3 3 3 2 2 3 2 2 3 5 6 6 7 8 6 4 5 5 7 9 9 10 10 7 7 10 8 9
10 12 12 12 14 13 13 14 14 14 14 13 10 10 9 9 10 10 9 10 10 7 7 8 7 6 7 8 8 8 6 6 6 7 7 7 6 6 6 7 6 6 6 6 6 5 4 4 3 3 3 3 4 4 4 4 5 4 4 3 3 3 2 2 2 2 2 1 1 3 5 7 8 7 6 6 8 10 8 9 10 9 8 11 9
9 9 11 13 11 10 10 10 13 15 14 13 13 11 10 9 8 10 9 9 10 10 8 7 7 6 7 8 9 8 6 6 6 7 7 7 6 6 7 7 6 6 5 6 6 6 6 5 5 5 5 5 5 5 6 6 5 4 4 3 3 2 2 2 0 0 1 1 2 2 0 1 3 7 6 8 10 9 8 9 12 11 10 9 10
8 9 13 13 12 11 9 11 12 15 12 14 13 13 11 10 7 9 10 10 7 8 10 9 10 8 6 7 8 8 7 7 7 7 7 7 7 7 7 6 5 6 6 5 5 4 5 7 7 7 6 5 5 5 6 6 5 5 4 3 3 2 1 1 0 1 1 1 1 1 1 1 2 2 3 8 9 8 7 15 13 13 10 10 11
13 11 10 10 13 13 12 13 12 14 14 14 13 13 13 11 10 9 10 10 8 9 8 10 12 11 10 8 9 9 9 10 9 8 7 7 7 7 7 7 7 6 6 6 6 6 6 5 5 6 7 7 6 7 6 5 4 5 4 3 2 2 2 1 1 2 1 2 2 1 1 1 2 2 3 3 6 6 7 9 14 11 12 12 11
12 12 11 11 12 13 13 14 14 14 15 14 13 14 12 12 12 12 12 11 10 11 11 8 7 10 10 10 10 10 11 10 10 10 8 8 8 7 7 7 7 8 7 7 7 7 7 6 6 6 6 6 7 7 5 4 4 3 2 2 1 2 2 1 2 2 1 2 2 2 2 2 2 3 3 3 2 2 6 9 9 10 11 12 13
12 12 12 12 12 12 11 13 13 13 13 13 14 13 12 12 11 12 11 13 13 12 11 11 11 10 9 11 10 12 11 11 10 10 10 10 10 9 8 9 9 9 7 7 8 6 5 6 7 6 6 5 5 6 5 4 2 2 2 1 1 2 2 1 1 2 2 3 3 3 2 1 2 2 2 2 2 2 2 5 8 11 11 9 13
10 12 12 12 10 10 10 11 13 13 13 12 12 13 12 12 11 10 11 12 11 12 11 10 10 10 11 11 12 8 8 8 9 9 10 8 8 7 8 9 8 8 8 8 8 8 8 8 9 7 5 4 3 3 3 3 3 2 1 2 2 2 2 2 2 3 3 3 4 3 1 3 2 2 2 2 2 2 2 2 2 5 6 11 8
11 11 13 12 12 11 11 11 13 14 12 12 11 11 11 11 11 10 11 11 10 9 10 10 8 9 11 13 11 8 9 10 11 11 10 7 6 7 9 7 7 8 8 9 10 10 11 10 9 8 7 3 1 1 2 3 2 2 1 1 2 2 3 2 3 4 2 3 3 3 4 2 2 3 2 2 2 3 2 3 3 4 7 8 10
11 12 12 13 14 13 12 14 12 13 12 12 11 11 10 13 12 13 11 9 8 8 8 8 8 8 8 10 10 9 11 12 12 12 11 10 9 10 8 7 7 8 9 10 9 9 9 8 6 4 6 5 3 3 4 4 3 1 2 3 3 3 4 4 5 5 5 3 2 2 3 4 3 2 2 2 2 3 3 2 2 4 5 6 7
12 12 14 14 13 13 13 12 10 12 13 13 11 12 12 11 12 12 12 12 11 9 8 7 9 8 9 9 9 9 12 13 9 10 11 11 11 9 8 9 8 8 9 7 6 5 6 6 5 4 4 6 5 7 6 7 4 7 4 3 5 4 6 5 6 8 6 4 4 4 4 4 4 3 2 2 3 3 3 3 2 3 4 5 7
8 10 11 11 11 12 12 11 10 11 12 13 13 12 11 11 11 10 10 10 9 10 11 8 7 9 11 12 11 12 12 10 8 10 10 13 10 8 8 9 10 7 5 5 6 7 8 9 10 8 6 4 4 5 10 12 6 4 2 3 4 4 5 5 6 10 9 6 4 5 6 4 5 3 3 3 3 4 3 3 3 3 4 5 4
6 7 8 10 9 10 11 11 11 11 11 12 12 14 12 11 11 11 10 8 4 1 4 4 5 6 8 8 8 8 9 9 9 9 9 13 10 9 8 7 8 7 7 9 9 10 10 9 9 11 10 8 8 9 11 10 5 9 4 8 2 1 6 11 11 10 11 8 7 8 5 6 5 4 3 5 5 4 4 3 4 4 4 5 4
7 7 7 8 7 10 10 10 10 11 10 12 12 13 12 10 10 8 5 1 2 5 4 5 8 8 8 9 9 7 8 10 9 9 10 10 9 9 9 8 8 9 9 9 9 10 12 12 13 12 13 12 9 5 7 10 9 10 7 5 1 3 10 6 1 5 6 8 11 9 7 7 7 5 5 6 4 4 3 4 5 4 5 5 4
6 6 6 7 8 7 9 9 9 10 10 12 12 12 12 11 10 9 11 11 12 11 11 13 12 14 15 12 13 12 12 10 9 9 10 9 10 10 10 10 10 10 10 9 8 8 11 12 13 13 12 11 7 8 7 8 10 10 8 5 2 6 3 2 3 7 4 6 5 8 8 8 6 6 6 6 6 5 4 5 4 5 4 4 3
4 2 4 6 7 7 8 9 9 8 9 10 12 11 13 13 13 12 11 11 11 10 9 9 9 10 10 12 11 8 10 12 9 9 9 10 11 11 11 11 11 11 10 9 10 11 11 12 9 10 10 9 7 8 9 9 7 8 8 12 7 1 3 3 8 2 6 2 5 7 10 8 7 8 8 8 7 5 5 4 5 6 6 4 4
1 1 3 5 7 9 8 9 8 8 7 9 12 12 11 12 13 13 12 12 12 11 11 12 11 9 9 8 7 7 7 9 10 9 9 10 11 10 10 10 10 11 10 11 11 8 6 7 8 9 7 8 10 10 9 8 12 12 14 13 8 2 1 5 4 5 7 7 4 3 6 6 6 8 9 9 11 9 7 8 7 7 5 7 6
1 2 4 4 5 6 7 7 8 8 8 11 11 13 11 10 11 10 12 11 11 11 9 7 8 8 12 10 8 7 7 7 8 8 7 8 9 10 9 10 9 8 8 8 8 8 10 9 9 8 11 10 11 11 9 11 11 11 8 12 7 9 4 3 3 0 4 8 12 8 7 3 5 10 10 12 9 9 9 7 7 6 6 7 7
0 1 1 2 3 4 6 8 8 7 7 9 11 12 12 10 10 11 13 12 10 9 8 9 10 9 11 10 8 8 7 7 7 7 8 7 6 7 7 9 10 9 9 10 10 10 10 10 13 13 13 14 11 11 13 10 7 7 6 3 7 9 8 7 10 7 6 8 13 9 8 7 9 10 11 12 14 13 8 6 7 7 7 7 7
2 2 2 2 2 3 5 6 6 5 7 9 10 11 11 10 11 12 13 13 11 11 8 8 7 6 8 9 9 8 7 7 7 7 8 8 7 6 5 5 6 9 10 10 10 11 10 10 9 11 10 11 8 9 12 10 8 8 9 8 10 11 11 12 10 10 12 10 8 10 13 12 13 12 7 10 11 10 8 6 8 8 8 7 6
Wind_Direction
156 150 143 132 189 150 139 119 111 100 92 88 84 81 80 79 83 100 100 89 92 89 78 90 92 89 85 83 79 85 84 84 82 80 82 82 83 84 83 79 77 76 78 78 77 77 77 76 77 75 75 73 75 77 76 76 73 70 68 67 66 64 63 62 60 68 72 75 76 78 78 79 77 76 74 72 70 65 63 68 74 74 74 71 72
156 148 145 149 155 146 133 121 109 101 94 87 82 78 75 84 96 87 84 92 89 86 95 95 91 89 86 86 89 90 86 84 82 82 82 90 93 90 88 86 81 80 82 84 84 80 76 77 80 80 81 79 79 78 76 73 69 68 67 66 63 61 60 61 61 66 75 75 75 75 77 77 75 76 77 75 72 67 62 65 72 79 77 76 73
143 149 148 146 156 170 124 122 109 102 95 90 87 85 86 82 81 90 101 109 130 120 102 98 98 93 93 93 92 89 87 84 84 84 84 80 77 78 77 80 81 82 79 77 77 80 82 83 82 81 79 81 79 76 76 73 69 68 67 65 63 62 61 62 62 61 72 88 90 87 79 74 75 78 79 78 76 73 70 74 74 76 80 80 79
144 145 146 137 176 152 122 120 105 99 99 97 92 91 87 90 93 103 101 97 72 83 99 102 96 94 94 94 95 91 89 90 88 88 87 89 87 89 93 90 88 88 88 83 78 81 84 84 83 82 83 81 83 83 78 72 70 68 67 66 66 64 64 63 61 59 53 78 84 84 79 81 79 79 80 80 78 76 76 78 78 79 79 78 78
140 143 144 151 156 135 131 117 110 108 104 97 94 89 86 91 94 92 87 92 94 95 91 93 97 96 97 100 99 100 102 96 94 92 89 94 97 92 87 87 87 90 88 87 88 84 85 85 85 85 85 85 83 81 78 78 76 74 71 70 69 68 66 63 61 59 63 66 85 86 81 82 82 81 84 81 77 74 74 74 76 76 76 76 76
142 144 149 151 143 133 133 120 115 111 105 100 100 100 94 93 97 94 91 82 87 92 100 101 103 101 100 101 98 98 96 97 93 90 89 85 85 84 80 83 85 82 79 83 92 90 86 86 86 86 86 86 85 82 82 82 81 79 76 73 73 69 63 58 56 65 76 81 78 80 82 83 80 79 80 83 79 77 78 76 79 77 76 75 73
146 148 150 146 143 131 132 122 118 114 108 104 103 101 100 98 92 89 90 87 85 96 99 104 102 106 104 102 104 100 94 92 93 94 93 93 95 95 92 85 82 82 84 87 86 88 90 90 90 89 88 87 86 85 85 85 83 81 80 78 72 68 67 61 58 58 66 80 81 85 86 84 82 74 83 82 80 81 80 78 75 75 73 72 72
144 150 149 146 139 130 131 124 119 117 112 108 111 109 105 101 97 100 93 88 102 94 101 108 109 107 103 103 102 98 100 99 101 97 93 91 90 93 101 94 86 82 81 84 88 90 89 88 88 88 88 89 87 87 86 85 83 81 81 78 70 64 60 65 65 61 71 81 80 81 82 85 84 83 74 81 85 78 75 73 73 72 71 71 70
150 151 150 144 130 122 129 126 123 121 116 113 114 111 107 103 103 98 95 100 94 84 93 106 113 104 104 105 104 102 104 103 94 93 93 92 92 88 77 82 87 88 89 95 94 95 94 93 92 92 91 89 89 88 86 86 86 83 80 77 69 63 61 71 77 87 81 83 82 84 88 87 87 86 81 77 75 73 74 78 78 74 73 73 75
151 151 150 148 139 130 140 132 128 127 122 121 118 118 114 113 115 110 105 92 94 95 103 110 107 102 101 104 103 102 102 102 98 91 91 97 91 87 90 87 90 95 96 91 89 92 94 95 92 90 91 89 85 85 86 86 86 85 84 78 72 69 66 74 79 76 85 83 81 76 65 74 84 85 84 82 80 78 74 70 75 77 77 74 71
153 153 152 145 139 135 146 138 136 134 129 127 127 123 124 122 119 117 106 99 103 101 98 102 106 102 103 106 106 106 107 102 98 99 98 97 103 96 92 90 87 90 92 93 91 90 90 91 91 90 86 85 86 86 86 87 86 86 82 78 71 62 63 62 77 83 82 85 86 86 82 78 79 76 85 84 83 80 78 78 79 80 80 79 75
155 153 152 145 134 141 146 144 143 136 132 131 127 127 126 127 123 118 112 93 102 106 104 105 107 107 107 105 109 113 112 103 99 99 94 90 91 99 104 102 94 87 90 93 91 92 92 91 91 90 91 90 90 90 89 88 86 81 79 77 69 60 62 71 85 86 82 81 79 80 81 82 84 86 84 84 84 84 84 83 82 80 79 79 80
155 157 154 147 150 124 147 152 143 139 137 134 132 133 132 131 129 126 113 108 106 114 116 103 102 107 107 108 110 113 109 109 105 104 105 105 95 92 89 88 91 97 96 92 94 93 94 93 90 92 90 93 93 91 87 85 83 78 76 77 73 62 47 78 85 86 84 85 89 86 84 84 93 89 86 85 85 83 80 82 81 80 81 80 80
157 160 157 157 146 128 149 158 147 142 140 137 137 136 135 132 134 129 122 112 106 110 110 101 102 111 111 112 114 115 120 116 113 109 104 101 103 99 94 96 96 95 95 96 88 89 92 93 94 94 93 92 91 86 85 83 81 79 75 76 77 78 94 85 85 84 84 79 77 82 83 81 81 84 83 82 81 81 82 81 82 84 83 82 81
162 163 161 164 153 160 146 161 144 144 138 136 138 136 135 136 133 132 124 117 110 106 109 107 113 111 114 117 119 117 116 115 111 110 109 99 93 93 94 93 94 95 95 89 90 88 90 95 95 95 97 95 92 92 90 87 84 80 77 69 55 26 66 89 86 86 83 83 82 79 82 86 85 84 85 82 83 85 85 86 83 81 85 87 86
167 165 163 164 164 155 166 151 145 144 143 135 138 133 135 135 134 131 129 120 118 119 114 121 118 119 118 118 119 119 119 116 109 99 99 98 101 100 97 94 101 99 94 93 95 96 96 96 97 98 100 101 98 97 92 87 81 79 74 65 48 43 37 96 93 88 86 89 85 81 83 81 82 81 83 86 85 85 84 81 82 81 79 80 80
167 171 172 166 171 168 168 170 149 144 144 138 136 135 132 130 133 135 135 126 119 123 120 117 124 127 123 121 110 101 95 98 86 89 106 109 102 96 107 112 105 105 102 100 97 97 98 99 98 103 102 102 104 100 95 88 84 78 71 62 48 45 35 93 94 91 90 78 82 82 83 86 86 87 82 80 85 86 89 89 87 87 85 84 89
174 176 178 173 173 176 175 168 164 169 157 147 137 136 133 134 133 135 133 128 120 105 99 83 75 84 114 110 106 102 95 74 59 62 80 89 79 70 91 102 107 101 99 99 96 97 98 100 102 101 101 100 100 96 90 90 87 82 76 66 53 52 28 76 101 98 95 96 88 89 88 87 89 90 90 90 88 88 89 88 84 86 89 86 82
175 184 179 178 180 178 178 173 180 175 168 165 161 141 136 132 132 133 132 130 120 94 86 89 88 91 101 103 101 94 75 65 67 67 77 90 86 75 67 98 107 100 98 102 103 100 99 101 102 103 102 103 99 88 89 89 89 88 82 74 83 64 70 106 98 106 109 99 95 89 78 80 86 88 90 93 97 95 86 82 83 82 85 92 90
178 185 183 187 186 180 181 177 188 185 181 172 165 154 137 135 135 134 133 128 119 108 101 90 92 94 94 104 104 110 105 85 79 80 68 81 92 107 112 101 108 107 106 109 109 108 107 109 110 111 109 108 93 86 86 87 90 89 79 99 100 171 111 96 104 100 92 93 92 98 109 105 105 105 101 98 96 97 98 97 99 100 90 87 87
187 189 189 188 188 185 183 179 195 191 184 181 170 160 132 134 137 128 129 125 123 116 108 109 111 108 113 111 130 139 138 132 135 112 104 91 87 86 91 100 114 111 110 116 115 116 116 115 113 119 115 96 85 75 70 83 89 87 92 106 174 135 102 106 110 105 105 108 110 107 109 133 128 109 100 99 97 99 105 108 104 98 97 96 92
186 191 193 193 188 186 188 189 188 193 196 185 179 160 143 169 161 159 158 139 127 130 145 144 136 128 124 145 152 146 146 151 136 129 124 125 99 77 80 80 87 100 113 121 118 117 118 120 128 124 109 110 122 116 98 75 67 91 108 175 170 112 120 117 108 101 107 115 115 134 148 95 93 99 118 117 111 105 99 96 102 105 101 100 99
191 189 196 196 192 186 192 193 192 192 195 194 187 165 168 185 171 173 162 167 155 165 161 155 160 151 159 159 159 152 150 152 141 91 91 60 78 80 80 81 88 95 105 110 123 117 122 124 122 101 102 116 134 136 135 134 116 119 160 177 126 131 128 123 121 124 114 112 123 128 112 112 112 114 101 100 108 113 115 114 112 101 102 103 107
194 193 192 196 193 194 193 195 194 193 192 196 198 182 178 192 185 179 173 177 175 179 169 170 165 163 163 171 162 146 157 141 90 115 125 136 100 82 84 82 72 72 104 107 90 82 99 93 87 110 130 146 134 147 152 155 158 166 168 158 148 144 143 137 127 130 125 122 126 122 112 112 118 115 120 127 123 113 106 108 106 104 102 106 98
193 190 194 195 196 196 191 193 195 197 199 197 198 195 189 188 196 187 185 182 183 184 178 176 169 167 170 171 154 151 163 151 162 158 176 162 165 160 152 160 159 145 150 142 159 144 169 149 148 178 137 136 143 146 168 168 173 177 176 169 158 160 156 145 139 139 136 137 143 139 118 127 130 132 124 114 113 120 124 119 105 104 108 104 106
187 194 195 195 197 198 195 192 196 199 200 205 202 191 190 199 193 200 187 189 186 188 186 180 176 179 178 165 156 162 167 164 169 169 169 172 176 177 177 175 172 169 174 178 163 171 182 173 166 156 138 141 140 153 170 183 179 184 181 173 170 167 166 157 146 147 146 145 142 144 137 142 130 126 129 125 131 128 126 121 112 115 113 110 111
197 203 195 199 198 194 195 196 196 200 203 207 210 202 201 202 201 194 197 193 191 191 193 190 186 180 180 170 172 172 173 172 173 175 176 177 183 182 181 175 180 181 186 175 150 173 198 175 166 145 131 129 132 141 153 168 186 187 182 179 179 179 171 169 161 157 153 153 138 130 130 130 134 133 126 130 132 125 117 121 119 122 123 120 117
204 204 204 203 202 198 192 193 198 199 203 207 206 209 209 204 198 178 197 196 195 197 197 199 187 185 185 185 186 177 177 174 176 177 181 183 184 180 178 173 178 171 174 172 168 180 192 179 157 133 145 146 145 159 163 174 161 180 182 182 181 183 179 178 174 164 153 154 154 151 151 143 145 139 136 142 138 140 141 141 131 139 127 128 129
210 207 206 208 205 203 196 194 195 201 202 202 210 211 213 215 201 187 192 181 204 207 202 199 195 194 188 191 190 183 183 179 177 179 183 190 181 181 182 186 178 173 174 176 177 182 186 179 169 172 170 173 167 171 169 169 188 188 192 184 183 186 181 185 178 174 166 169 173 135 148 148 162 148 162 156 152 158 133 133 136 140 136 133 131
211 209 208 210 209 204 205 200 196 196 201 202 207 211 212 215 216 205 200 174 210 212 206 201 204 198 195 196 197 196 187 184 178 180 187 191 190 183 189 184 184 176 181 183 181 188 187 180 176 176 178 180 182 166 183 170 175 162 190 187 189 186 177 189 185 182 172 180 179 155 185 176 149 161 171 175 159 169 157 155 152 149 147 142 139
208 210 209 211 207 203 209 205 203 195 195 202 206 207 213 217 215 214 200 190 202 210 207 207 207 203 208 201 203 206 196 189 181 181 188 190 195 189 194 184 186 182 185 183 179 192 187 188 185 185 188 188 182 167 199 174 174 173 168 186 181 180 194 198 187 196 193 192 191 169 166 204 187 201 203 177 186 159 155 168 162 160 161 163 156
210 211 208 208 210 210 209 209 208 197 198 200 204 209 208 215 220 213 212 199 202 204 209 210 198 208 210 207 208 208 203 193 183 180 190 195 200 195 192 189 192 183 184 181 178 187 188 167 159 176 176 187 173 176 191 189 182 179 177 190 177 201 194 198 201 202 207 205 199 183 175 172 199 202 204 189 170 186 159 178 185 196 165 172 166
212 210 208 208 212 210 212 211 212 207 207 207 201 208 210 207 212 220 214 206 203 196 200 205 187 183 190 207 214 213 202 201 188 185 192 207 206 198 195 195 195 186 185 175 170 174 176 171 165 174 183 190 187 181 181 193 185 179 187 192 186 202 216 220 198 211 243 273 217 178 182 180 186 205 223 216 177 200 198 180 184 197 193 171 182
206 206 206 209 207 211 210 209 209 214 210 214 212 208 207 212 211 212 213 212 210 208 201 203 205 179 176 185 208 209 203 204 197 189 192 200 198 199 200 195 193 177 174 167 180 183 181 178 178 187 188 197 199 196 191 195 186 180 189 182 202 188 202 225 245 299 323 280 322 311 336 183 204 195 200 201 185 218 172 189 194 195 198 192 182
209 207 208 208 204 209 206 214 210 213 204 213 214 217 209 208 207 215 213 209 202 205 206 202 208 202 180 185 184 187 196 201 198 197 195 202 199 197 201 197 181 177 179 185 188 190 190 187 181 190 183 197 199 200 207 202 188 186 186 183 197 172 203 204 328 319 301 309 273 286 308 312 282 268 207 192 190 219 229 185 196 199 202 193 193
214 213 209 205 210 208 207 214 208 215 217 217 220 221 220 216 210 210 215 211 206 208 204 207 213 217 208 193 191 190 193 196 194 196 195 197 199 199 199 192 174 179 186 177 189 200 202 200 198 198 187 200 195 197 202 204 193 186 175 189 188 193 195 179 220 237 253 251 231 243 256 294 300 286 286 232 196 202 233 184 198 205 194 198 197
215 215 211 207 213 210 210 215 216 212 214 209 207 218 217 217 222 214 215 214 220 223 217 210 211 210 202 198 189 192 199 199 193 190 193 198 201 199 194 179 173 186 188 185 192 195 192 193 198 213 222 209 202 197 191 191 185 185 168 180 195 209 220 220 222 237 273 256 253 239 238 239 269 276 277 298 305 216 221 221 209 195 194 198 198
219 219 216 213 212 212 211 216 219 221 221 219 216 217 218 222 221 219 213 218 213 219 224 212 204 205 207 215 202 200 203 202 200 199 206 206 205 202 192 182 182 188 188 189 199 194 192 192 201 205 213 220 208 205 196 182 153 155 164 168 183 224 238 240 265 299 267 261 246 241 241 253 257 273 275 288 304 298 263 232 218 191 194 200 204
218 217 218 217 217 213 214 216 220 221 220 220 219 221 221 223 228 232 225 221 224 224 222 215 204 200 203 208 214 199 192 190 196 207 218 216 209 210 212 187 181 188 190 192 196 197 200 200 206 192 193 206 228 207 178 143 133 119 166 178 186 238 256 237 249 232 226 252 283 297 287 253 266 275 274 278 281 297 310 293 233 188 207 203 215
220 219 218 217 218 217 217 220 220 222 223 224 220 219 220 221 220 218 221 219 220 220 216 215 205 202 204 206 204 194 191 200 199 198 206 209 208 213 211 175 176 182 188 197 200 196 196 191 197 187 168 149 160 142 120 123 86 66 355 271 250 251 241 252 263 267 254 223 233 271 270 257 251 255 282 297 289 294 273 286 268 236 201 207 202
221 218 213 214 215 215 212 220 217 217 220 220 219 214 212 221 226 222 217 208 210 212 215 213 208 203 199 205 198 193 198 201 203 200 203 205 210 213 201 171 177 182 194 208 205 197 191 187 180 153 158 157 166 144 127 120 114 238 257 270 271 241 255 248 249 249 242 243 227 220 263 276 251 254 254 283 289 292 290 268 262 273 243 201 200
219 214 215 214 212 213 213 215 214 217 220 220 219 219 216 215 219 225 228 229 226 220 220 208 204 199 197 202 212 210 208 212 199 196 201 200 205 207 204 198 189 196 202 190 187 175 164 178 164 172 192 183 188 169 158 132 206 209 200 245 260 249 231 229 237 245 237 229 232 231 232 242 255 246 257 263 265 260 258 270 253 262 267 254 205
226 215 219 216 213 211 216 216 212 212 222 222 222 222 220 217 215 226 227 234 240 243 235 230 224 230 226 219 212 213 216 214 201 207 207 216 200 197 200 203 197 190 177 176 169 178 185 184 180 182 175 203 190 177 181 192 184 146 92 37 252 260 226 228 221 236 221 208 202 229 227 223 234 240 245 244 241 235 238 241 251 247 258 266 251
224 223 213 212 210 213 213 212 214 215 221 223 223 226 225 228 225 233 230 236 233 266 247 224 212 224 228 217 213 209 206 210 205 200 207 217 205 201 197 190 194 188 198 201 193 196 188 187 187 199 189 184 201 205 199 198 182 138 200 211 197 174 280 251 235 224 198 198 189 223 207 220 219 220 230 236 227 227 229 230 243 243 244 249 254
221 219 208 203 210 213 211 210 211 214 220 225 217 223 225 224 230 236 253 276 264 254 241 234 217 214 223 215 209 193 202 205 203 208 210 212 207 208 199 193 189 191 197 206 203 198 195 197 193 196 194 201 196 184 191 201 212 206 195 116 132 227 230 247 162 245 150 197 215 215 211 211 216 208 218 234 226 232 235 240 242 239 242 246 252
225 217 207 207 208 209 206 204 209 211 216 221 220 214 216 217 213 214 217 226 236 232 230 232 233 235 235 236 238 228 222 211 205 203 209 208 208 207 200 195 195 194 198 199 202 205 207 205 201 201 203 205 191 175 189 205 224 227 246 250 277 261 230 180 153 259 146 229 220 206 211 208 204 210 218 225 219 218 203 237 237 248 240 240 255
229 194 203 211 209 210 203 202 206 207 207 212 211 208 214 217 216 215 217 218 226 231 230 233 235 235 236 244 245 244 241 234 217 206 204 201 209 208 206 204 200 199 198 202 207 207 202 202 196 198 202 199 195 204 194 195 210 254 242 241 245 203 329 171 236 276 277 177 231 220 227 212 199 216 222 223 221 204 207 201 225 237 242 224 227
304 201 205 196 200 203 199 201 203 203 196 206 207 204 208 212 215 218 220 224 225 233 229 235 237 244 234 224 225 221 219 227 222 208 209 212 214 214 207 206 200 202 198 201 205 197 184 197 195 200 202 201 206 214 206 192 189 218 214 229 229 110 306 334 350 268 271 281 236 209 239 224 202 231 234 233 226 215 212 195 211 218 221 221 216
252 215 196 189 190 192 196 196 200 197 196 204 204 205 209 211 212 216 222 226 231 234 236 236 237 232 240 235 231 225 222 220 227 223 217 219 217 220 213 211 206 204 197 210 221 219 208 198 193 196 205 204 204 211 212 214 209 226 180 220 222 232 227 260 318 2 245 256 261 241 244 173 218 234 230 229 227 223 216 211 209 209 215 230 222
10 232 161 162 173 179 188 189 196 194 193 202 204 205 207 209 211 216 220 225 227 238 242 239 237 238 240 241 236 231 225 222 222 228 223 216 219 220 217 208 206 202 198 203 207 207 207 207 205 203 203 206 207 210 216 218 208 217 199 173 200 228 240 245 242 234 253 237 257 248 243 214 231 235 223 224 223 224 216 200 208 208 212 221 220
63 65 91 119 135 167 172 184 185 187 196 201 201 205 207 210 217 220 224 228 232 235 231 232 231 230 233 237 237 237 233 230 223 227 231 231 228 222 224 228 220 207 200 202 204 205 203 204 201 202 201 201 202 206 218 230 226 215 219 208 205 203 206 214 210 210 225 233 244 251 249 237 242 259 216 216 223 219 204 197 214 213 210 206 212